Theta_e
354 355 360 362 361 360 360 359 359 359 359 359 359 359 359 358 359 357 357 355 353 350 350 349 350 351 351 352 352 349 347 345
354 355 358 361 361 361 360 360 359 359 358 359 359 358 358 358 358 357 356 354 353 352 350 349 350 351 351 349 347 345 343 342
354 356 356 360 361 360 360 360 359 358 358 358 358 358 358 358 357 357 355 355 354 353 351 350 349 348 346 345 344 343 341 341
355 355 355 356 359 361 359 359 359 358 357 357 357 357 358 357 357 357 355 354 354 353 352 351 350 348 345 344 344 343 343 341
352 353 354 356 357 355 356 359 359 358 358 357 357 357 357 357 356 356 354 354 354 353 352 351 349 348 346 345 344 344 345 342
348 349 352 354 355 355 354 357 359 359 359 358 357 357 354 350 350 351 352 351 354 353 352 352 350 348 347 346 346 346 345 335
343 346 350 352 353 354 356 354 355 355 355 354 353 351 349 346 346 349 350 352 353 353 353 352 351 349 348 338 334 338 336 336
345 345 348 350 351 351 353 354 354 354 354 354 352 350 346 346 344 347 344 346 345 350 345 346 344 342 339 337 335 332 331 332
343 343 345 348 348 349 351 351 350 351 351 351 352 350 346 342 341 342 341 339 339 340 340 338 337 336 337 337 334 333 332 332
342 342 343 345 346 347 345 349 349 350 350 350 351 350 349 345 341 342 340 338 338 339 338 336 335 334 332 332 332 333 332 334
343 342 343 343 343 342 342 345 345 348 349 349 349 349 349 346 343 340 340 339 338 337 336 335 332 330 328 328 329 331 333 337
338 341 340 342 343 340 340 343 343 345 346 347 348 348 349 348 344 341 338 337 337 335 334 334 332 328 328 329 331 334 337 339
337 339 341 343 341 337 340 342 342 342 340 343 343 344 347 348 346 339 338 337 336 333 333 332 330 329 329 329 330 333 337 338
336 339 340 339 338 335 342 345 344 341 338 339 337 336 338 342 346 343 340 339 336 335 335 334 331 332 330 331 332 333 332 334
331 339 338 335 333 333 332 333 341 346 346 340 336 336 337 338 341 342 343 338 336 335 337 334 334 333 333 333 333 333 332 333
328 333 335 331 331 333 332 330 334 338 342 345 345 343 339 340 341 341 341 340 336 335 336 335 335 333 334 330 328 328 329 332
326 331 331 331 327 326 324 337 340 340 340 341 341 340 344 344 341 341 340 341 340 338 336 336 333 332 332 331 329 324 324 328
319 323 326 322 323 321 318 323 324 324 325 327 327 329 332 334 339 341 342 340 340 341 337 334 334 333 332 333 332 328 322 319
311 313 316 318 318 319 320 320 318 316 316 320 321 325 327 332 334 336 339 339 338 336 333 337 335 330 331 333 331 334 332 327
Wind_Speed
10 9 14 16 15 17 17 17 16 15 14 14 14 15 15 14 12 11 10 10 10 12 12 11 10 9 8 7 5 5 4 3
10 8 12 16 15 16 17 16 16 16 15 15 15 15 14 13 12 11 11 11 10 10 10 10 9 8 7 6 5 5 5 4
12 8 9 13 14 14 16 16 16 15 15 15 14 14 13 13 12 11 10 11 11 11 10 9 8 7 7 7 7 7 6 6
11 11 8 7 10 14 15 15 15 15 15 15 15 14 13 12 11 10 10 9 8 8 8 8 8 8 8 8 8 8 8 7
9 10 12 12 11 9 8 14 14 14 14 13 13 12 12 11 11 10 10 9 9 9 9 8 7 7 8 8 8 8 8 9
6 6 8 10 10 9 8 9 12 15 14 14 13 13 9 4 6 8 7 10 10 9 9 8 7 7 7 8 8 8 10 3
11 8 8 9 11 11 9 8 8 8 6 6 6 5 4 4 4 5 6 9 9 9 9 9 9 8 7 3 3 7 3 4
11 9 10 8 8 10 9 7 6 6 5 5 7 6 4 3 3 3 3 3 4 8 3 5 4 3 5 4 4 3 4 4
9 11 11 9 8 9 5 6 7 8 7 8 9 8 6 4 4 4 3 4 3 3 4 4 3 5 6 5 5 6 6 4
10 10 12 12 11 9 5 5 5 8 8 9 10 9 7 7 6 5 4 4 4 4 4 4 4 4 4 5 5 6 6 6
14 14 13 14 12 9 7 6 5 5 6 6 7 7 9 7 6 6 5 6 6 5 4 4 4 4 4 4 7 6 8 8
8 10 16 16 12 11 8 6 5 6 5 6 6 8 9 9 6 5 4 5 5 4 5 4 4 3 4 5 7 5 7 10
5 10 11 11 11 7 8 6 5 5 5 6 4 4 7 8 7 6 5 7 5 5 5 5 4 4 6 4 6 8 6 4
13 8 9 8 11 10 7 6 6 6 5 5 3 3 4 7 6 6 7 7 6 5 6 6 4 6 5 5 5 5 5 5
9 9 8 8 9 8 5 3 3 4 5 4 4 5 6 5 7 7 7 4 4 5 6 3 7 5 7 7 4 6 5 7
5 7 9 9 10 8 4 3 2 4 2 3 4 6 8 7 9 9 6 5 5 5 7 7 5 6 6 3 0 3 3 6
11 12 8 9 7 5 4 4 4 4 3 3 3 3 4 5 6 8 7 8 8 6 8 8 5 5 5 5 5 2 4 5
9 9 10 10 9 6 5 2 3 4 4 4 4 3 3 4 1 6 7 7 9 9 6 4 3 7 9 5 7 5 2 5
7 7 7 6 6 3 5 3 3 3 3 1 2 1 3 4 5 3 4 4 5 4 5 9 9 14 15 14 3 6 5 3
Wind_Direction
147 155 155 150 153 147 146 147 145 147 148 148 150 151 154 157 159 159 162 165 172 175 177 177 177 181 185 188 187 193 198 201
148 156 152 151 157 154 152 153 154 157 160 161 161 164 166 167 168 171 175 180 186 187 186 185 188 191 193 199 211 219 235 252
148 149 153 155 158 158 157 161 164 165 168 170 171 173 174 176 180 185 188 190 193 193 191 192 198 205 205 211 218 230 240 257
153 148 149 154 164 165 166 168 171 172 175 179 179 179 179 182 187 190 197 202 207 213 212 207 204 208 216 227 232 232 242 250
164 164 163 166 171 170 171 176 176 178 182 183 185 185 186 191 194 199 202 210 213 215 218 223 222 229 239 247 261 272 275 275
170 180 178 172 170 168 167 181 183 189 189 188 190 193 186 184 196 208 217 217 226 229 232 228 230 238 246 261 270 275 277 277
192 190 186 181 178 173 177 179 177 183 182 189 187 189 183 190 196 201 220 231 240 241 239 251 249 247 254 241 253 276 280 272
182 183 188 189 185 183 180 172 179 191 186 194 188 181 180 182 198 207 210 224 221 234 240 241 253 249 256 247 249 254 250 249
185 185 179 187 189 193 182 178 177 191 189 198 206 187 176 185 190 201 200 225 223 221 222 227 233 250 250 254 258 265 262 246
188 188 188 183 189 189 187 183 184 194 193 201 204 198 190 196 201 203 207 192 212 193 223 229 229 256 264 275 255 253 261 263
193 188 181 194 188 178 187 180 186 187 198 202 207 205 203 207 205 208 211 216 223 196 212 212 223 233 253 263 270 251 260 252
202 188 184 191 180 184 183 183 180 187 188 204 204 198 205 207 207 203 208 226 221 192 201 218 229 229 246 241 256 261 255 260
191 186 195 183 178 169 170 179 181 190 190 209 201 212 199 215 200 191 210 223 198 187 199 208 198 228 244 229 251 252 262 263
200 187 171 172 172 172 169 173 183 185 199 207 183 229 226 229 211 211 225 229 193 195 213 211 212 212 225 243 248 267 262 257
190 179 175 169 158 174 176 189 176 183 214 185 194 206 205 220 212 218 234 223 204 207 229 204 217 213 228 238 241 250 245 256
164 183 183 170 189 161 157 180 182 190 159 198 180 202 211 209 214 215 215 217 193 208 232 217 229 235 254 191 292 281 264 248
182 194 179 199 174 164 155 168 168 168 184 146 142 150 177 203 206 224 222 226 228 199 223 225 214 254 255 188 202 176 284 290
176 193 188 183 178 187 173 95 68 59 46 53 31 25 352 352 340 207 217 216 221 228 182 131 327 286 281 277 230 195 277 236
197 160 164 160 161 161 149 100 92 113 118 160 112 344 338 340 331 341 256 244 230 218 224 202 220 232 237 253 225 229 243 96